Follow iAlert.com on twitter @ialertcom
Search For Active Alerts in Your Area  
  Hi Guest:  [ Sign-up / Services ] [ Login ]

Current weather by "City, St" or "zip code"  
 

Advertise Here

Current Conditions: New Orleans, New Orleans Lakefront Airport, LA

A Few Clouds


88.0 F

Last Updated on Aug 16 2018, 5:53 pm CDT
Humidity: 68%
Wind Speed: S 13.8 mph
Barometer 30.06 in
Dewpoint: 75.9 F
Visibility: 10.00 mi
Precip: --
Heat Index: 99 F
Wind Chill: NA
Current conditions at:

New Orleans, New Orleans Lakefront Airport, LA (KNEW)

Lat: 30.04 Lon: 90.028

Local Radar Image active severe weather and emergency alerts image image weather storm and storm spotter reports image weather observation monitoring service image
Local
Radar
Active
Alerts
Storm Reports Obs
Monitoring

iAlert Weather and Emergency Alert Notification Services:


ialert severe weather and emergency alerts by text message and email ialert daily weather forecast by email and text message service ialert real-time weather-observation monitoring and alert notification service ialert storm report monitoring alert notification

Observation History for New Orleans, New Orleans Lakefront Airport, LA


Time Wind
(mph)
Vis
(mi)
Weather Precip (in) Temperature (F) Relative
Humidity
Wind
Chill
(°F)
Heat
Index
(°F)
Pressure
Air Dwpt altimeter
(in)
sea level
(mb)
5:53 pm CDT S 13.8 10.00 A Few Clouds -- 88.0 75.9 68% NA 99 30.06 1017.4
4:53 pm CDT S 11.5 10.00 Fair -- 89.0 75.0 63% NA 99 30.07 1017.7
3:53 pm CDT SE 6.9 10.00 Partly Cloudy -- 88.0 75.0 66% NA 98 30.06 1017.2
2:53 pm CDT SE 13.8 10.00 A Few Clouds -- 87.0 77.0 72% NA 99 30.09 1018.1
1:53 pm CDT E 9.2 10.00 Fair -- 90.0 75.0 62% NA 101 30.09 1018.3
12:53 pm CDT E 6.9 10.00 Fair -- 87.0 75.9 70% NA 97 30.10 1018.7
11:53 am CDT SE 5.8 10.00 Fair -- 84.0 73.9 72% NA 91 30.11 1019.1
10:53 am CDT E 6.9 10.00 Thunderstorm -- 82.0 72.0 72% NA 87 30.13 1019.5
9:53 am CDT N 5.8 10.00 Thunderstorm -- 87.0 75.9 70% NA 97 30.11 1019.0
8:53 am CDT N 0.0 10.00 Overcast -- 86.0 75.9 72% NA 96 30.10 1018.7
7:53 am CDT N 0.0 10.00 Fair -- 85.0 75.9 75% NA 94 30.09 1018.1
6:53 am CDT N 0.0 10.00 Fair -- 83.0 75.0 77% NA 90 30.07 1017.7
5:53 am CDT S 4.6 10.00 Partly Cloudy -- 81.0 75.0 82% NA 87 30.05 1017.1
4:53 am CDT S 4.6 10.00 Fair -- 81.0 75.9 85% NA 87 30.04 1016.5
3:53 am CDT S 4.6 10.00 Fair -- 81.0 75.9 85% NA 87 30.03 1016.3
2:53 am CDT S 6.9 10.00 Fair -- 82.0 77.0 85% NA 90 30.03 1016.2
1:53 am CDT S 4.6 10.00 Fair -- 82.0 75.9 82% NA 89 30.03 1016.3
12:53 am CDT S 4.6 10.00 Fair -- 82.0 75.9 82% NA 89 30.04 1016.4
11:53 pm CDT S 5.8 10.00 Fair -- 82.0 73.9 77% NA 88 30.04 1016.4
10:53 pm CDT SE 5.8 10.00 Fair -- 84.0 75.0 74% NA 92 30.03 1016.3
9:53 pm CDT S 6.9 10.00 Fair -- 83.0 75.9 79% NA 91 30.03 1016.3
8:53 pm CDT SE 8.1 10.00 Fair -- 84.0 75.0 74% NA 92 30.01 1015.6
7:53 pm CDT S 6.9 10.00 Fair -- 85.0 73.9 70% NA 93 30.02 1016.0
6:53 pm CDT S 9.2 10.00 Fair -- 86.0 71.1 61% NA 92 30.01 1015.5

Regional Weather Observation


New Orleans, New Orleans International Airport, LA (KMSY)

Mostly Cloudy
87.0 F

Hammond, Hammond Municipal Airport, LA (KHDC)

Partly Cloudy
82.0 F

New Orleans Naval Air Station - Alvin Callender Field, LA (KNBG)

Mostly Cloudy
87.0 F

Bogalusa, George R Carr Memorial Air Field, LA (KBXA)

Thunderstorm in Vicinity
85.0 F

Bay St. Louis, Stennis International Airport, MS (KHSA)

Mostly Cloudy
84.0 F

Houma-Terrebonne Airport, LA (KHUM)

NULL
81.0 F

Advertise Here